When you browse on this site, cookies collect data to enhance your experience and personalize the content and advertising you see.
Visit our Privacy Policy to learn more. By continuing to use the site, you agree to this use of cookies and data.
  • In Austria
  • List of Countries
  • For 7 days
  • Water Temperature
  • Weather Map
  • News
  • Weather Widgets
  • user-avatar
    Login

    Hourly Weather Canberra

    Today, 27 January, Monday

    Time Temperature Precipitation Wind Pressure Humidity
    00:00 +17°C° 0 mm 2 mps 708 mmHg 81%
    01:00 +16°C° 0 mm 1 mps 708 mmHg 85%
    02:00 +16°C° 0 mm 1 mps 708 mmHg 86%
    03:00 +15°C° 0 mm 1 mps 708 mmHg 86%
    04:00 +15°C° 0 mm 1 mps 708 mmHg 86%
    05:00 +18°C° 0 mm 1 mps 708 mmHg 80%
    06:00 +19°C° 0 mm 1 mps 708 mmHg 75%
    07:00 +21°C° 0 mm 1 mps 709 mmHg 69%
    08:00 +24°C° 0 mm 1 mps 709 mmHg 60%
    09:00 +27°C° 0 mm 1 mps 709 mmHg 52%
    10:00 +31°C° 0 mm 1 mps 709 mmHg 45%
    11:00 +32°C° 0 mm 2 mps 709 mmHg 36%
    12:00 +35°C° 0 mm 3 mps 709 mmHg 27%
    13:00 +37°C° 0 mm 4 mps 708 mmHg 18%
    14:00 +37°C° 0 mm 4 mps 708 mmHg 17%
    15:00 +37°C° 0 mm 4 mps 707 mmHg 16%
    16:00 +36°C° 0 mm 4 mps 707 mmHg 15%
    17:00 +34°C° 0 mm 3 mps 708 mmHg 21%
    18:00 +31°C° 0 mm 2 mps 708 mmHg 27%
    19:00 +28°C° 0 mm 2 mps 708 mmHg 33%
    20:00 +26°C° 0 mm 2 mps 708 mmHg 51%
    21:00 +23°C° 0 mm 2 mps 708 mmHg 70%
    22:00 +20°C° 0 mm 3 mps 708 mmHg 80%
    23:00 +20°C° 0 mm 2 mps 708 mmHg 82%

    Tomorrow, 28 January, Tuesday

    Time Temperature Precipitation Wind Pressure Humidity
    00:00 +20°C° 0 mm 2 mps 708 mmHg 84%
    01:00 +21°C° 0 mm 1 mps 708 mmHg 85%
    02:00 +21°C° 0 mm 1 mps 708 mmHg 85%
    03:00 +21°C° 0 mm 1 mps 707 mmHg 85%
    04:00 +21°C° 0 mm 1 mps 707 mmHg 85%
    05:00 +22°C° 0 mm 1 mps 707 mmHg 83%
    06:00 +22°C° 0 mm 1 mps 708 mmHg 80%
    07:00 +23°C° 0 mm 1 mps 708 mmHg 77%
    08:00 +26°C° 0 mm 1 mps 708 mmHg 62%
    09:00 +29°C° 0 mm 2 mps 709 mmHg 47%
    10:00 +31°C° 0 mm 2 mps 709 mmHg 31%
    11:00 +34°C° 0 mm 3 mps 708 mmHg 26%
    12:00 +35°C° 0 mm 4 mps 708 mmHg 20%
    13:00 +36°C° 0 mm 5 mps 708 mmHg 15%
    14:00 +36°C° 0 mm 5 mps 708 mmHg 14%
    15:00 +36°C° 0 mm 4 mps 708 mmHg 14%
    16:00 +35°C° 0 mm 4 mps 708 mmHg 13%
    17:00 +32°C° 0 mm 4 mps 708 mmHg 27%
    18:00 +28°C° 0 mm 3 mps 708 mmHg 41%
    19:00 +24°C° 0 mm 3 mps 708 mmHg 55%
    20:00 +22°C° 0 mm 3 mps 709 mmHg 66%
    21:00 +20°C° 0 mm 3 mps 709 mmHg 76%
    22:00 +18°C° 0 mm 2 mps 710 mmHg 87%
    23:00 +18°C° 0 mm 2 mps 710 mmHg 88%

    Day after tomorrow, 29 January, Wednesday

    Time Temperature Precipitation Wind Pressure Humidity
    00:00 +17°C° 0 mm 2 mps 709 mmHg 89%
    01:00 +16°C° 0 mm 1 mps 709 mmHg 90%
    02:00 +16°C° 0 mm 1 mps 709 mmHg 90%
    03:00 +16°C° 0 mm 1 mps 709 mmHg 90%
    04:00 +15°C° 0 mm 1 mps 709 mmHg 90%
    05:00 +18°C° 0 mm 1 mps 709 mmHg 81%
    06:00 +19°C° 0 mm 1 mps 710 mmHg 72%
    07:00 +20°C° 0 mm 1 mps 710 mmHg 63%
    08:00 +23°C° 0 mm 1 mps 710 mmHg 52%
    09:00 +26°C° 0 mm 1 mps 711 mmHg 42%
    10:00 +29°C° 0 mm 1 mps 711 mmHg 32%
    11:00 +31°C° 0 mm 1 mps 711 mmHg 28%
    12:00 +34°C° 0 mm 1 mps 711 mmHg 24%
    13:00 +36°C° 0 mm 1 mps 711 mmHg 19%
    14:00 +36°C° 0 mm 1 mps 710 mmHg 19%
    15:00 +36°C° 0 mm 1 mps 710 mmHg 18%
    16:00 +37°C° 0 mm 2 mps 710 mmHg 18%
    17:00 +33°C° 0 mm 3 mps 710 mmHg 30%
    18:00 +29°C° 0 mm 3 mps 710 mmHg 42%
    19:00 +25°C° 0 mm 4 mps 710 mmHg 53%
    20:00 +22°C° 0 mm 4 mps 710 mmHg 62%
    21:00 +20°C° 0 mm 3 mps 710 mmHg 70%
    22:00 +19°C° 0 mm 2 mps 711 mmHg 78%
    23:00 +18°C° 0 mm 2 mps 710 mmHg 80%

    30 January, Thursday

    Time Temperature Precipitation Wind Pressure Humidity
    00:00 +18°C° 0 mm 1 mps 710 mmHg 83%
    01:00 +18°C° 0 mm 1 mps 710 mmHg 85%
    02:00 +16°C° 0 mm 1 mps 710 mmHg 84%
    03:00 +16°C° 0 mm 1 mps 710 mmHg 84%
    04:00 +16°C° 0 mm 1 mps 710 mmHg 83%
    05:00 +19°C° 0 mm 1 mps 710 mmHg 76%
    06:00 +20°C° 0 mm 1 mps 710 mmHg 68%
    07:00 +22°C° 0 mm 1 mps 710 mmHg 60%
    08:00 +26°C° 0 mm 1 mps 711 mmHg 51%
    09:00 +29°C° 0 mm 1 mps 711 mmHg 41%
    10:00 +33°C° 0 mm 1 mps 712 mmHg 31%
    11:00 +35°C° 0 mm 2 mps 711 mmHg 27%
    12:00 +37°C° 0 mm 3 mps 710 mmHg 22%
    13:00 +38°C° 0 mm 3 mps 710 mmHg 17%
    14:00 +39°C° 0 mm 3 mps 709 mmHg 16%
    15:00 +39°C° 0 mm 3 mps 709 mmHg 15%
    16:00 +39°C° 0 mm 3 mps 709 mmHg 14%
    17:00 +37°C° 0 mm 2 mps 709 mmHg 17%
    18:00 +35°C° 0 mm 2 mps 709 mmHg 20%
    19:00 +32°C° 0 mm 1 mps 709 mmHg 23%
    20:00 +30°C° 0 mm 1 mps 709 mmHg 28%
    21:00 +28°C° 0 mm 1 mps 709 mmHg 32%
    22:00 +26°C° 0 mm 1 mps 709 mmHg 37%
    23:00 +25°C° 0 mm 1 mps 709 mmHg 40%

    31 January, Friday

    Time Temperature Precipitation Wind Pressure Humidity
    00:00 +24°C° 0 mm 1 mps 709 mmHg 44%
    01:00 +23°C° 0 mm 1 mps 709 mmHg 47%
    02:00 +23°C° 0 mm 1 mps 709 mmHg 49%
    03:00 +22°C° 0 mm 1 mps 708 mmHg 51%
    04:00 +19°C° 0 mm 0 mps 708 mmHg 53%
    05:00 +21°C° 0 mm 0 mps 709 mmHg 49%
    06:00 +23°C° 0 mm 0 mps 709 mmHg 44%
    07:00 +24°C° 0 mm 0 mps 710 mmHg 40%
    08:00 +29°C° 0 mm 1 mps 710 mmHg 36%
    09:00 +34°C° 0 mm 2 mps 710 mmHg 32%
    10:00 +37°C° 0 mm 3 mps 711 mmHg 28%
    11:00 +38°C° 0 mm 3 mps 710 mmHg 25%
    12:00 +41°C° 0 mm 4 mps 710 mmHg 21%
    13:00 +43°C° 0 mm 4 mps 709 mmHg 18%
    14:00 +43°C° 0 mm 4 mps 709 mmHg 18%
    15:00 +43°C° 0 mm 4 mps 708 mmHg 17%
    16:00 +43°C° 0 mm 5 mps 708 mmHg 17%
    17:00 +42°C° 0 mm 4 mps 708 mmHg 20%
    18:00 +39°C° 0 mm 3 mps 708 mmHg 22%
    19:00 +37°C° 0 mm 3 mps 708 mmHg 25%
    20:00 +35°C° 0 mm 2 mps 709 mmHg 29%
    21:00 +32°C° 0 mm 2 mps 709 mmHg 33%
    22:00 +30°C° 0 mm 1 mps 709 mmHg 37%
    23:00 +29°C° 0 mm 1 mps 709 mmHg 39%

    1 February, Saturday

    Time Temperature Precipitation Wind Pressure Humidity
    00:00 +28°C° 0 mm 1 mps 708 mmHg 41%
    01:00 +28°C° 0 mm 1 mps 708 mmHg 43%
    02:00 +27°C° 0 mm 1 mps 708 mmHg 44%
    03:00 +27°C° 0 mm 1 mps 708 mmHg 46%
    04:00 +26°C° 0 mm 1 mps 708 mmHg 47%
    05:00 +28°C° 0 mm 2 mps 708 mmHg 45%
    06:00 +29°C° 0 mm 3 mps 709 mmHg 42%
    07:00 +30°C° 0 mm 3 mps 709 mmHg 40%
    08:00 +33°C° 0 mm 4 mps 709 mmHg 35%
    09:00 +36°C° 0 mm 5 mps 709 mmHg 30%
    10:00 +39°C° 0 mm 6 mps 710 mmHg 26%
    11:00 +40°C° 0 mm 7 mps 709 mmHg 24%
    12:00 +41°C° 0 mm 7 mps 708 mmHg 22%
    13:00 +44°C° 0 mm 7 mps 708 mmHg 20%
    14:00 +44°C° 0 mm 7 mps 707 mmHg 19%
    15:00 +44°C° 0 mm 7 mps 707 mmHg 19%
    16:00 +44°C° 0 mm 7 mps 706 mmHg 18%
    17:00 +41°C° 0 mm 6 mps 706 mmHg 20%
    18:00 +40°C° 0 mm 4 mps 706 mmHg 21%
    19:00 +37°C° 0 mm 3 mps 706 mmHg 23%
    20:00 +35°C° 0 mm 2 mps 707 mmHg 26%
    21:00 +32°C° 0 mm 2 mps 707 mmHg 29%
    22:00 +30°C° 0 mm 1 mps 707 mmHg 33%
    23:00 +28°C° 0 mm 1 mps 707 mmHg 38%
    Show more